Regional Weather Roundup
Issued by NWS

Home | Current Version | Previous Version | Text Only | Print | Product List | Glossary Off
Versions: 1 2 3 4 5 6 7 8 9 10 11 12 13 14 15 16 17 18 19 20 21 22 23 24 25 26 27 28 29 30 31 32 33 34 35 36 37 38 39 40 41 42 43 44 45 46 47 48 49 50

000
ASUS45 KTFX 231204
RWRMT
MONTANA HOURLY WEATHER ROUNDUP
NATIONAL WEATHER SERVICE GREAT FALLS MT
604 AM MDT WED APR 23 2014

NOTE: "FAIR" INDICATES FEW OR NO CLOUDS BELOW 12000 FEET WITH NO
SIGNIFICANT WEATHER AND/OR OBSTRUCTIONS TO VISIBILITY.

* THESE STATIONS ARE NOT UNDER NWS QUALITY CONTROL. THEY DO NOT
   REPORT WEATHER SUCH AS PRECIPITATION OR FOG.

MTZ001>007-043-231300-
WEST OF THE DIVIDE
CITY           SKY/WX    TMP DP  RH WIND       PRES   REMARKS
KALISPELL      PTCLDY    34  25  70 S9        29.75R WCI  27
MISSOULA       CLOUDY    37  27  67 W6        29.82R WCI  32
BUTTE          CLOUDY    30  23  75 NW6       29.75R WCI  24
MULLAN PASS    CLOUDY    25  23  92 VRB7G22   29.75F WCI  17
* ESSEX        N/A       36  22  57 SW4G11     N/A
* LINCOLN      N/A       34  25  70 SW5G14     N/A   WCI  29
* LOOKOUT PASS N/A       31  25  78 SE9G17     N/A   WCI  23
* POLSON       N/A       32  25  75 S1         N/A
* SEELEY LAKE  N/A       31  27  85 E2G9       N/A
* THOMP F APT  PTCLDY    26  23  88 N8G23      N/A   WCI  18
$$

MTZ008-052>055-231300-
SOUTHWEST MONTANA
CITY           SKY/WX    TMP DP  RH WIND       PRES   REMARKS
BOZEMAN        LGT SNOW  32  28  85 W6        29.76R WCI  26
DILLON         CLOUDY    30  23  75 W15       29.76R WCI  19
W YELLOWSTONE  N/A       27  26  96 W2G13      N/A
* THREE FORKS  CLOUDY    34  27  76 SW5        N/A   WCI  29
* BOULDER HILL N/A       31  13  47 NE8G19     N/A   WCI  24
* MONIDA PASS  N/A       22  21  96 NW17G23    N/A   WCI   8
* RAYNOLDS PAS N/A       26  25  96 VRB12      N/A   WCI  15
* WHITEHALL    N/A       36  26  67 W4G13      N/A
* WISE RIVER   N/A       30  22  72 W15G24     N/A   WCI  19
$$

MTZ009>010-012-014-046-048-049-054-231300-
EAST SLOPES AND CENTRAL MONTANA
CITY           SKY/WX    TMP DP  RH WIND       PRES   REMARKS
CUT BANK       MOCLDY    36  23  59 W22       29.54F WCI  25
GREAT FALLS    CLOUDY    37  28  70 SW17      29.60R WCI  27
HELENA         CLOUDY    39  25  57 W13G18    29.72R WCI  31
MALMSTROM AFB  CLOUDY    39  28  65 SW14      29.59R WCI  31
* CONRAD       MOCLDY    39  23  53 W21G26     N/A   WCI  29
* DEARBORN     N/A       41  23  49 S16G21     N/A
* EAST GLACIER N/A       34  13  42 NW29G42    N/A   WCI  20
* MONARCH      N/A       32  22  67 SW12       N/A   WCI  23
* PENDROY      N/A       37  15  41 NW29G34    N/A   WCI  25
* ROGERS PASS  N/A       29  22  75 SE12G23    N/A   WCI  19
* SAINT MARY   N/A       35  15  44 SW13G31    N/A   WCI  26
* SWEET GRASS  N/A       38  21  50 W30G41     N/A   WCI  26
$$

MTZ011-013-016-021-035-040-045-047-050-051-231300-
NORTH CENTRAL MONTANA
CITY           SKY/WX    TMP DP  RH WIND       PRES   REMARKS
HAVRE          CLOUDY    43  36  76 W15       29.53R
LEWISTOWN      CLOUDY    37  30  76 W21G29    29.58R WCI  26
* CHESTER      N/A       41  26  55 W19G32     N/A
* DENTON       N/A       40  29  65 W26G35     N/A   WCI  29
* GEYSER       N/A       36  26  67 W23G31     N/A   WCI  24
* JUDITH GAP   N/A       37  35  92 VRB14      N/A   WCI  28
* LOMA         N/A       42  31  65 SW16G23    N/A
$$

MTZ017>020-022>027-061-062-231300-
NORTHEAST MONTANA
CITY           SKY/WX    TMP DP  RH WIND       PRES   REMARKS
GLASGOW        CLOUDY    48  34  59 W5        29.39R
GLENDIVE       CLOUDY    52  34  50 E10       29.38R
JORDAN         CLOUDY    48  43  83 NW29G37   29.44R
SIDNEY         CLOUDY    52  36  55 N/A       29.40S
WOLF POINT     MOCLDY    48  34  59 E8        29.39R
* BEAVER HILL  N/A       50  34  54 E26G38     N/A
* CIRCLE       N/A       52  35  52 N/A        N/A
* LINDSAY DVD  N/A       44  33  65 E4         N/A
* NAVAJO       N/A       47  36  66 SE12G20    N/A
* SACO         N/A       47  43  86 W19G27     N/A
$$

MTZ028>042-056>058-231300-
SOUTHCENTRAL AND SOUTHEAST MONTANA
CITY           SKY/WX    TMP DP  RH WIND       PRES   REMARKS
BAKER          CLOUDY    50  37  61 SE12      29.38S
BILLINGS       MOCLDY    43  30  60 W21       29.55R
LIVINGSTON     CLOUDY    36  36 100 W18       29.69R WCI  26
MILES CITY     HAZE      50  43  77 NW24G37   29.41R VSB 1 3/4
* LAUREL APT   PTCLDY    45  28  51 W21G28     N/A
* ROUNDUP APT  CLOUDY    45  36  71 W5         N/A
* HYSHAM       N/A       45  37  74 W9G21      N/A
* REED POINT   N/A       40  28  62 W29G41     N/A   WCI  29
* ROSCOE HILL  N/A       36  26  67 VRB6G27    N/A   WCI  31
$$

REGIONAL REPORTS...DAKOTAS
CITY           SKY/WX    TMP DP  RH WIND       PRES   REMARKS
WILLISTON      CLOUDY    52  37  57 SE24G37   29.43R
DICKINSON      MOCLDY    46  34  63 E28G35    29.41F
CROSBY         CLEAR     45  37  74 E28G33    29.49F
TIOGA          CLEAR     48  41  77 SE35G49   29.50F
WATFORD CITY   CLEAR     48  37  66 SE25G45   29.43S
BISMARCK       CLOUDY    52  37  57 E23G32    29.60F
GRAND FORKS    CLOUDY    45  28  51 SE17      29.91F
FARGO          CLOUDY    48  30  50 SE16      29.92S
BUFFALO SD     CLOUDY    57  43  60 SE17      29.33S
RAPID CITY     CLOUDY    55  43  64 S7        29.44F
$$

REGIONAL REPORTS...WYOMING/IDAHO/WASHINGTON
CITY           SKY/WX    TMP DP  RH WIND       PRES   REMARKS
GILLETTE       CLOUDY    54  36  51 SW25G32   29.46R
SHERIDAN       MOCLDY    46  36  68 E9        29.50R
CODY           PTCLDY    45  27  49 W17G32    29.53S
YELLOWSTONE LA MOCLDY    25  21  85 VRB6      29.67R WCI  18
SALMON         MOCLDY    37  23  57 CALM      29.85R
MULLAN PASS    CLOUDY    25  23  92 VRB7G22   29.75S WCI  17
SPOKANE        CLOUDY    34  30  85 S8        29.83S WCI  27
$$

REGIONAL REPORTS...SASKATCHEWAN
CITY           SKY/WX    TMP DP  RH WIND       PRES   REMARKS
MOOSE JAW      TSTM     N/A N/A N/A SE24G35    N/A

$$




USA.gov is the U.S. government's official web portal to all federal, state and local government web resources and services.